Terminal Aerodrome Forecast
Issued by NWS

Home | Current Version | Previous Version | Graphics & Text | Print | Product List | Glossary On
Versions: 1 2 3 4 5 6 7 8 9 10 11 12 13 14 15 16 17 18 19 20
000
FTUS43 KOAX 171401 AAB
TAFCDR
TAF AMD
KCDR 171401Z 1714/1812 VRB03KT P6SM BKN060
     FM171700 18018G28KT P6SM BKN080
     FM172300 18015G25KT P6SM VCTS SCT080CB BKN110
     FM180300 18015G25KT P6SM SCT100
     FM180600 21010KT P6SM SCT100=

USA.gov is the U.S. government's official web portal to all federal, state and local government web resources and services.